GIA252 WAHI-WADD

Flight info

Callsign GIA252
Flight time 1h 5m
Altitude 35000
Route SO W17N PURWO DCT BA T3 MOVMO
Aircraft B738/M-SDE2E3FGHIRWYZ/LB1

Departure

Time 2026-05-06 03:28
Airport Yogyakarta International Airport (WAHI)

Arrival

Time 2026-05-06 04:33
Airport Denpasar I Gusti Ngurah Rai International Airport (WADD)
Time Latitude Longitude Altitude Speed Heading
2026-05-06 03:03 -7.90204 110.06067 39 ft 0 kts 20°
2026-05-06 03:13 -7.90208 110.06065 40 ft 3 kts 20°
2026-05-06 03:14 -7.90233 110.06056 38 ft 4 kts 20°
2026-05-06 03:14 -7.90255 110.06048 37 ft 4 kts 24°
2026-05-06 03:14 -7.90274 110.06033 39 ft 4 kts 79°
2026-05-06 03:14 -7.90271 110.06009 40 ft 2 kts 110°
2026-05-06 03:15 -7.90268 110.06003 37 ft 0 kts 110°
2026-05-06 03:19 -7.90269 110.06004 38 ft 0 kts 110°
2026-05-06 03:19 -7.90272 110.06012 40 ft 2 kts 110°
2026-05-06 03:19 -7.90280 110.06035 39 ft 5 kts 110°
2026-05-06 03:19 -7.90294 110.06073 39 ft 7 kts 110°
2026-05-06 03:20 -7.90337 110.06187 40 ft 10 kts 111°
2026-05-06 03:20 -7.90364 110.06260 40 ft 12 kts 110°
2026-05-06 03:20 -7.90395 110.06342 40 ft 13 kts 111°
2026-05-06 03:21 -7.90429 110.06433 40 ft 14 kts 110°
2026-05-06 03:21 -7.90487 110.06507 40 ft 15 kts 176°
2026-05-06 03:21 -7.90587 110.06472 41 ft 15 kts 215°
2026-05-06 03:21 -7.90587 110.06374 44 ft 15 kts 290°
2026-05-06 03:22 -7.90552 110.06277 42 ft 15 kts 290°
2026-05-06 03:22 -7.90515 110.06175 45 ft 16 kts 290°
2026-05-06 03:22 -7.90479 110.06075 47 ft 15 kts 290°
2026-05-06 03:22 -7.90442 110.05974 44 ft 16 kts 290°
2026-05-06 03:23 -7.90401 110.05861 46 ft 18 kts 290°
2026-05-06 03:23 -7.90355 110.05736 47 ft 20 kts 290°
2026-05-06 03:23 -7.90306 110.05600 46 ft 22 kts 290°
2026-05-06 03:23 -7.90249 110.05445 44 ft 25 kts 290°
2026-05-06 03:24 -7.90186 110.05274 41 ft 27 kts 290°
2026-05-06 03:24 -7.90137 110.05137 39 ft 16 kts 290°
2026-05-06 03:24 -7.90096 110.05027 39 ft 17 kts 290°
2026-05-06 03:24 -7.90069 110.04953 40 ft 17 kts 290°
2026-05-06 03:25 -7.90028 110.04841 41 ft 18 kts 290°
2026-05-06 03:25 -7.89986 110.04724 42 ft 18 kts 290°
2026-05-06 03:25 -7.89944 110.04609 44 ft 17 kts 290°
2026-05-06 03:25 -7.89901 110.04494 43 ft 19 kts 290°
2026-05-06 03:26 -7.89858 110.04375 43 ft 14 kts 290°
2026-05-06 03:26 -7.89902 110.04312 44 ft 14 kts 168°
2026-05-06 03:26 -7.90016 110.04363 46 ft 13 kts 154°
2026-05-06 03:26 -7.90054 110.04409 46 ft 13 kts 110°
2026-05-06 03:27 -7.90089 110.04509 45 ft 21 kts 110°
2026-05-06 03:27 -7.90182 110.04762 41 ft 68 kts 110°
2026-05-06 03:27 -7.90422 110.05420 43 ft 129 kts 110°
2026-05-06 03:27 -7.90821 110.06417 150 ft 169 kts 111°
2026-05-06 03:28 -7.91219 110.07489 1045 ft 157 kts 114°
2026-05-06 03:28 -7.91932 110.08408 1438 ft 186 kts 140°
2026-05-06 03:28 -7.93187 110.08988 1714 ft 211 kts 167°
2026-05-06 03:28 -7.94707 110.09046 2081 ft 219 kts 179°
2026-05-06 03:29 -7.96244 110.08974 2543 ft 230 kts 179°
2026-05-06 03:29 -7.97899 110.08958 2900 ft 243 kts 176°
2026-05-06 03:29 -7.99622 110.09035 3520 ft 248 kts 173°
2026-05-06 03:29 -8.01341 110.09171 4300 ft 247 kts 172°
2026-05-06 03:30 -8.03052 110.09335 5062 ft 248 kts 172°
2026-05-06 03:30 -8.04781 110.09508 5732 ft 253 kts 174°
2026-05-06 03:30 -8.06580 110.09201 6052 ft 277 kts 207°
2026-05-06 03:30 -8.07977 110.07834 6597 ft 288 kts 240°
2026-05-06 03:31 -8.08591 110.05903 7189 ft 295 kts 265°
2026-05-06 03:31 -8.08364 110.03842 7843 ft 298 kts 290°
2026-05-06 03:31 -8.07297 110.02072 8458 ft 299 kts 319°
2026-05-06 03:31 -8.05527 110.01017 9095 ft 297 kts 345°
2026-05-06 03:32 -8.03525 110.00490 9749 ft 299 kts 350°
2026-05-06 03:32 -8.01476 110.00033 10258 ft 307 kts 350°
2026-05-06 03:32 -7.99319 109.99547 10394 ft 328 kts 349°
2026-05-06 03:32 -7.97033 109.99006 10546 ft 346 kts 348°
2026-05-06 03:33 -7.94651 109.98416 10877 ft 357 kts 348°
2026-05-06 03:33 -7.92227 109.97805 11380 ft 361 kts 347°
2026-05-06 03:33 -7.89778 109.97249 11944 ft 362 kts 353°
2026-05-06 03:33 -7.87256 109.97129 12495 ft 364 kts
2026-05-06 03:34 -7.84718 109.97272 13059 ft 367 kts
2026-05-06 03:34 -7.82176 109.97567 13599 ft 369 kts 17°
2026-05-06 03:34 -7.79890 109.98706 14095 ft 369 kts 39°
2026-05-06 03:34 -7.78162 110.00595 14648 ft 367 kts 59°
2026-05-06 03:35 -7.77170 110.02955 15187 ft 368 kts 78°
2026-05-06 03:35 -7.76984 110.05520 15667 ft 371 kts 95°
2026-05-06 03:35 -7.77277 110.08113 16209 ft 373 kts 98°
2026-05-06 03:35 -7.77626 110.10710 16711 ft 377 kts 98°
2026-05-06 03:36 -7.77983 110.13354 17110 ft 384 kts 97°
2026-05-06 03:36 -7.78326 110.16035 17606 ft 387 kts 97°
2026-05-06 03:36 -7.78656 110.18739 18093 ft 391 kts 97°
2026-05-06 03:36 -7.78982 110.21472 18498 ft 395 kts 97°
2026-05-06 03:37 -7.79302 110.24230 18932 ft 397 kts 96°
2026-05-06 03:37 -7.79607 110.27001 19378 ft 399 kts 96°
2026-05-06 03:37 -7.79902 110.29788 19795 ft 401 kts 94°
2026-05-06 03:37 -7.79909 110.32614 20181 ft 404 kts 84°
2026-05-06 03:38 -7.79528 110.35427 20615 ft 406 kts 81°
2026-05-06 03:38 -7.79118 110.38254 20995 ft 409 kts 82°
2026-05-06 03:38 -7.78615 110.41074 21363 ft 412 kts 74°
2026-05-06 03:38 -7.77589 110.43769 21748 ft 414 kts 63°
2026-05-06 03:39 -7.76092 110.46260 22136 ft 416 kts 52°
2026-05-06 03:39 -7.74256 110.48470 22505 ft 418 kts 49°
2026-05-06 03:39 -7.72319 110.50671 22855 ft 421 kts 48°
2026-05-06 03:39 -7.70362 110.52877 23192 ft 424 kts 48°
2026-05-06 03:40 -7.68402 110.55103 23520 ft 426 kts 48°
2026-05-06 03:40 -7.66439 110.57355 23804 ft 428 kts 49°
2026-05-06 03:40 -7.64478 110.59622 24099 ft 430 kts 49°
2026-05-06 03:40 -7.62515 110.61902 24377 ft 432 kts 49°
2026-05-06 03:41 -7.60551 110.64185 24656 ft 434 kts 49°
2026-05-06 03:41 -7.58571 110.66487 24928 ft 436 kts 49°
2026-05-06 03:41 -7.56585 110.68795 25199 ft 438 kts 49°
2026-05-06 03:41 -7.54581 110.71120 25470 ft 439 kts 48°
2026-05-06 03:42 -7.52315 110.73187 25693 ft 442 kts 32°
2026-05-06 03:42 -7.49545 110.74475 25955 ft 442 kts 16°
2026-05-06 03:42 -7.46500 110.74952 26238 ft 443 kts
2026-05-06 03:42 -7.43417 110.74970 26499 ft 445 kts 360°
2026-05-06 03:43 -7.40307 110.74950 26683 ft 448 kts 360°
2026-05-06 03:43 -7.37180 110.74946 26915 ft 450 kts
2026-05-06 03:43 -7.34042 110.74971 27180 ft 452 kts
2026-05-06 03:43 -7.30894 110.75017 27439 ft 453 kts
2026-05-06 03:44 -7.27738 110.75070 27678 ft 455 kts
2026-05-06 03:44 -7.24603 110.75462 27845 ft 458 kts 18°
2026-05-06 03:44 -7.21737 110.76844 28063 ft 459 kts 35°
2026-05-06 03:44 -7.19384 110.79003 28328 ft 459 kts 50°
2026-05-06 03:45 -7.17653 110.81702 28517 ft 462 kts 66°
2026-05-06 03:45 -7.16595 110.84758 28681 ft 464 kts 73°
2026-05-06 03:45 -7.15670 110.87880 28881 ft 466 kts 74°
2026-05-06 03:45 -7.14799 110.90912 29081 ft 468 kts 74°
2026-05-06 03:46 -7.13894 110.94044 29288 ft 470 kts 73°
2026-05-06 03:46 -7.12965 110.97200 29493 ft 471 kts 73°
2026-05-06 03:46 -7.12021 111.00345 29687 ft 473 kts 73°
2026-05-06 03:46 -7.11057 111.03518 29892 ft 474 kts 73°
2026-05-06 03:47 -7.10086 111.06693 30061 ft 476 kts 73°
2026-05-06 03:47 -7.09109 111.09880 30245 ft 477 kts 73°
2026-05-06 03:47 -7.08131 111.13070 30436 ft 477 kts 73°
2026-05-06 03:47 -7.07155 111.16253 30732 ft 475 kts 73°
2026-05-06 03:48 -7.06184 111.19424 30991 ft 474 kts 73°
2026-05-06 03:48 -7.05214 111.22594 31224 ft 474 kts 73°
2026-05-06 03:48 -7.04249 111.25745 31454 ft 473 kts 73°
2026-05-06 03:48 -7.03281 111.28908 31669 ft 474 kts 73°
2026-05-06 03:49 -7.02311 111.32073 31887 ft 474 kts 73°
2026-05-06 03:49 -7.01339 111.35245 32157 ft 472 kts 72°
2026-05-06 03:49 -7.00450 111.38418 32439 ft 471 kts 79°
2026-05-06 03:49 -7.00192 111.41696 32673 ft 471 kts 92°
2026-05-06 03:50 -7.00624 111.44956 32918 ft 471 kts 104°
2026-05-06 03:50 -7.01699 111.48065 33156 ft 470 kts 112°
2026-05-06 03:50 -7.02985 111.51085 33425 ft 470 kts 113°
2026-05-06 03:50 -7.04296 111.54101 33632 ft 471 kts 113°
2026-05-06 03:51 -7.05608 111.57122 33859 ft 471 kts 113°
2026-05-06 03:51 -7.06907 111.60142 34095 ft 470 kts 113°
2026-05-06 03:51 -7.08192 111.63164 34325 ft 469 kts 113°
2026-05-06 03:51 -7.09466 111.66186 34526 ft 469 kts 113°
2026-05-06 03:52 -7.10734 111.69211 34724 ft 469 kts 113°
2026-05-06 03:52 -7.11988 111.72211 34859 ft 461 kts 113°
2026-05-06 03:52 -7.14466 111.78150 34874 ft 461 kts 113°
2026-05-06 03:53 -7.16962 111.84134 34884 ft 467 kts 113°
2026-05-06 03:53 -7.19473 111.90151 34884 ft 471 kts 113°
2026-05-06 03:54 -7.22018 111.96250 34878 ft 473 kts 113°
2026-05-06 03:54 -7.24550 112.02321 34865 ft 465 kts 113°
2026-05-06 03:55 -7.27043 112.08302 34874 ft 463 kts 113°
2026-05-06 03:55 -7.29536 112.14284 34884 ft 463 kts 113°
2026-05-06 03:56 -7.32031 112.20275 34876 ft 464 kts 113°
2026-05-06 03:56 -7.34531 112.26279 34882 ft 465 kts 113°
2026-05-06 03:57 -7.37034 112.32294 34879 ft 466 kts 113°
2026-05-06 03:57 -7.39543 112.38324 34882 ft 466 kts 113°
2026-05-06 03:58 -7.42048 112.44348 34878 ft 466 kts 113°
2026-05-06 03:58 -7.44553 112.50375 34888 ft 466 kts 113°
2026-05-06 03:59 -7.46819 112.55830 34887 ft 465 kts 113°
2026-05-06 03:59 -7.49310 112.61829 34886 ft 465 kts 113°
2026-05-06 04:00 -7.51800 112.67829 34887 ft 464 kts 113°
2026-05-06 04:00 -7.54289 112.73828 34888 ft 463 kts 113°
2026-05-06 04:01 -7.56772 112.79813 34892 ft 463 kts 113°
2026-05-06 04:01 -7.59254 112.85802 34890 ft 463 kts 113°
2026-05-06 04:02 -7.61733 112.91784 34893 ft 462 kts 113°
2026-05-06 04:02 -7.64210 112.97765 34890 ft 462 kts 113°
2026-05-06 04:03 -7.66687 113.03749 34891 ft 463 kts 113°
2026-05-06 04:03 -7.69166 113.09739 34901 ft 463 kts 114°
2026-05-06 04:04 -7.71644 113.15732 34899 ft 464 kts 114°
2026-05-06 04:04 -7.74128 113.21739 34900 ft 464 kts 114°
2026-05-06 04:05 -7.76615 113.27758 34897 ft 466 kts 114°
2026-05-06 04:05 -7.79107 113.33790 34897 ft 466 kts 114°
2026-05-06 04:06 -7.81603 113.39836 34910 ft 467 kts 114°
2026-05-06 04:06 -7.83677 113.44862 34911 ft 468 kts 114°
2026-05-06 04:07 -7.84929 113.47898 34675 ft 473 kts 114°
2026-05-06 04:07 -7.86197 113.50971 34105 ft 476 kts 114°
2026-05-06 04:07 -7.87467 113.54051 33447 ft 475 kts 114°
2026-05-06 04:07 -7.88737 113.57133 32745 ft 475 kts 114°
2026-05-06 04:08 -7.90004 113.60206 32143 ft 474 kts 114°
2026-05-06 04:08 -7.91263 113.63263 31674 ft 470 kts 114°
2026-05-06 04:08 -7.92512 113.66297 31175 ft 467 kts 113°
2026-05-06 04:08 -7.93753 113.69310 30678 ft 464 kts 113°
2026-05-06 04:09 -7.94989 113.72313 30180 ft 462 kts 113°
2026-05-06 04:09 -7.96218 113.75298 29643 ft 460 kts 113°
2026-05-06 04:09 -7.97438 113.78265 29125 ft 456 kts 113°
2026-05-06 04:09 -7.98644 113.81195 28616 ft 452 kts 113°
2026-05-06 04:10 -7.99850 113.84118 28109 ft 448 kts 114°
2026-05-06 04:10 -8.01446 113.86778 27591 ft 442 kts 133°
2026-05-06 04:10 -8.03764 113.88751 27147 ft 435 kts 149°
2026-05-06 04:10 -8.06479 113.90064 26577 ft 432 kts 164°
2026-05-06 04:11 -8.09401 113.90657 26106 ft 427 kts 173°
2026-05-06 04:11 -8.12343 113.91020 25609 ft 425 kts 174°
2026-05-06 04:11 -8.15272 113.91336 25130 ft 422 kts 175°
2026-05-06 04:11 -8.18189 113.91648 24662 ft 420 kts 174°
2026-05-06 04:12 -8.21088 113.91971 24185 ft 419 kts 174°
2026-05-06 04:12 -8.23976 113.92308 23718 ft 417 kts 174°
2026-05-06 04:12 -8.26853 113.92654 23195 ft 415 kts 174°
2026-05-06 04:12 -8.29711 113.93005 22698 ft 412 kts 174°
2026-05-06 04:13 -8.32547 113.93355 22214 ft 409 kts 174°
2026-05-06 04:13 -8.35357 113.93702 21750 ft 406 kts 174°
2026-05-06 04:13 -8.38150 113.94049 21293 ft 402 kts 174°
2026-05-06 04:13 -8.40919 113.94392 20837 ft 399 kts 174°
2026-05-06 04:14 -8.43664 113.94732 20384 ft 396 kts 175°
2026-05-06 04:14 -8.46392 113.95069 19930 ft 394 kts 174°
2026-05-06 04:14 -8.49102 113.95404 19474 ft 391 kts 174°
2026-05-06 04:14 -8.51795 113.95737 19030 ft 389 kts 174°
2026-05-06 04:15 -8.54479 113.96068 18582 ft 387 kts 175°
2026-05-06 04:15 -8.57131 113.96498 18113 ft 387 kts 164°
2026-05-06 04:15 -8.59511 113.97732 17634 ft 387 kts 143°
2026-05-06 04:15 -8.61360 113.99689 17185 ft 386 kts 126°
2026-05-06 04:16 -8.62544 114.02107 16749 ft 384 kts 111°
2026-05-06 04:16 -8.63377 114.04659 16328 ft 381 kts 109°
2026-05-06 04:16 -8.64176 114.07200 15876 ft 378 kts 109°
2026-05-06 04:16 -8.64988 114.09711 15460 ft 375 kts 110°
2026-05-06 04:17 -8.65812 114.12197 15038 ft 372 kts 111°
2026-05-06 04:17 -8.66637 114.14660 14688 ft 367 kts 111°
2026-05-06 04:17 -8.67451 114.17088 14332 ft 363 kts 111°
2026-05-06 04:17 -8.68253 114.19488 13987 ft 359 kts 110°
2026-05-06 04:18 -8.69049 114.21862 13652 ft 354 kts 111°
2026-05-06 04:18 -8.69837 114.24207 13275 ft 350 kts 111°
2026-05-06 04:18 -8.70611 114.26518 12945 ft 345 kts 110°
2026-05-06 04:18 -8.71373 114.28795 12677 ft 338 kts 110°
2026-05-06 04:19 -8.72124 114.31038 12369 ft 336 kts 110°
2026-05-06 04:19 -8.72869 114.33265 12066 ft 333 kts 109°
2026-05-06 04:19 -8.73607 114.35471 11770 ft 330 kts 110°
2026-05-06 04:19 -8.74338 114.37657 11457 ft 327 kts 109°
2026-05-06 04:20 -8.75062 114.39823 11148 ft 323 kts 109°
2026-05-06 04:20 -8.75779 114.41968 10847 ft 320 kts 109°
2026-05-06 04:20 -8.76485 114.44082 10549 ft 315 kts 108°
2026-05-06 04:20 -8.77178 114.46156 10247 ft 306 kts 108°
2026-05-06 04:21 -8.77847 114.48159 9970 ft 296 kts 108°
2026-05-06 04:21 -8.78488 114.50077 9928 ft 278 kts 108°
2026-05-06 04:21 -8.79103 114.51919 9481 ft 276 kts 108°
2026-05-06 04:21 -8.79700 114.53709 9157 ft 270 kts 108°
2026-05-06 04:22 -8.80292 114.55484 8900 ft 264 kts 108°
2026-05-06 04:22 -8.80874 114.57230 8665 ft 261 kts 108°
2026-05-06 04:22 -8.81453 114.58966 8421 ft 260 kts 108°
2026-05-06 04:23 -8.82632 114.62503 7937 ft 270 kts 107°
2026-05-06 04:23 -8.83235 114.64312 7669 ft 272 kts 107°
2026-05-06 04:23 -8.83837 114.66116 7415 ft 269 kts 107°
2026-05-06 04:23 -8.84360 114.67921 7137 ft 267 kts 95°
2026-05-06 04:24 -8.84197 114.69760 6909 ft 262 kts 75°
2026-05-06 04:24 -8.83596 114.71491 6672 ft 260 kts 68°
2026-05-06 04:24 -8.82893 114.73169 6431 ft 259 kts 67°
2026-05-06 04:24 -8.82181 114.74836 6178 ft 258 kts 67°
2026-05-06 04:25 -8.81475 114.76501 5917 ft 257 kts 67°
2026-05-06 04:25 -8.80780 114.78158 5672 ft 255 kts 68°
2026-05-06 04:25 -8.80095 114.79808 5421 ft 254 kts 68°
2026-05-06 04:25 -8.79418 114.81448 5178 ft 251 kts 68°
2026-05-06 04:26 -8.78750 114.83071 4950 ft 249 kts 68°
2026-05-06 04:26 -8.78089 114.84683 4716 ft 248 kts 69°
2026-05-06 04:26 -8.77428 114.86296 4478 ft 248 kts 69°
2026-05-06 04:26 -8.76774 114.87891 4233 ft 242 kts 69°
2026-05-06 04:27 -8.76138 114.89440 3992 ft 235 kts 69°
2026-05-06 04:27 -8.75549 114.90953 3779 ft 228 kts 77°
2026-05-06 04:27 -8.75446 114.92511 3583 ft 219 kts 91°
2026-05-06 04:27 -8.75475 114.94016 3405 ft 209 kts 91°
2026-05-06 04:28 -8.75488 114.95441 3203 ft 197 kts 91°
2026-05-06 04:28 -8.75509 114.96778 3017 ft 184 kts 92°
2026-05-06 04:28 -8.75524 114.98033 2832 ft 172 kts 91°
2026-05-06 04:28 -8.75507 114.99193 2673 ft 160 kts 90°
2026-05-06 04:29 -8.75476 115.00281 2573 ft 157 kts 89°
2026-05-06 04:29 -8.75438 115.01380 2414 ft 155 kts 89°
2026-05-06 04:29 -8.75398 115.02440 2237 ft 148 kts 90°
2026-05-06 04:29 -8.75359 115.03487 2116 ft 150 kts 89°
2026-05-06 04:30 -8.75318 115.04531 1973 ft 147 kts 89°
2026-05-06 04:30 -8.75278 115.05552 1839 ft 145 kts 90°
2026-05-06 04:30 -8.75237 115.06591 1695 ft 150 kts 90°
2026-05-06 04:30 -8.75197 115.07636 1525 ft 148 kts 90°
2026-05-06 04:31 -8.75156 115.08665 1332 ft 145 kts 89°
2026-05-06 04:31 -8.75116 115.09679 1144 ft 144 kts 90°
2026-05-06 04:31 -8.75077 115.10710 968 ft 150 kts 90°
2026-05-06 04:31 -8.75035 115.11783 776 ft 153 kts 89°
2026-05-06 04:32 -8.74993 115.12848 571 ft 149 kts 90°
2026-05-06 04:32 -8.74948 115.13890 337 ft 148 kts 87°
2026-05-06 04:32 -8.74906 115.14894 168 ft 139 kts 89°
2026-05-06 04:32 -8.74876 115.15856 30 ft 130 kts 90°
2026-05-06 04:33 -8.74849 115.16597 27 ft 75 kts 88°
2026-05-06 04:33 -8.74833 115.16976 27 ft 48 kts 88°
2026-05-06 04:33 -8.74821 115.17238 26 ft 27 kts 88°
2026-05-06 04:33 -8.74754 115.17315 28 ft 14 kts
2026-05-06 04:34 -8.74667 115.17291 31 ft 13 kts 309°
2026-05-06 04:34 -8.74659 115.17201 31 ft 13 kts 267°
2026-05-06 04:34 -8.74662 115.17112 31 ft 13 kts 267°
2026-05-06 04:34 -8.74667 115.17026 31 ft 12 kts 267°
2026-05-06 04:35 -8.74670 115.16941 31 ft 12 kts 268°
2026-05-06 04:35 -8.74674 115.16850 31 ft 14 kts 267°
2026-05-06 04:35 -8.74679 115.16741 31 ft 17 kts 268°
2026-05-06 04:35 -8.74684 115.16629 30 ft 17 kts 267°
2026-05-06 04:36 -8.74688 115.16521 31 ft 15 kts 268°
2026-05-06 04:36 -8.74692 115.16428 31 ft 13 kts 268°
2026-05-06 04:36 -8.74695 115.16349 32 ft 8 kts 268°
2026-05-06 04:36 -8.74697 115.16292 32 ft 8 kts 267°
2026-05-06 04:37 -8.74697 115.16289 32 ft 1 kts 275°
2026-05-06 04:37 -8.74678 115.16278 31 ft 4 kts 358°
2026-05-06 04:37 -8.74647 115.16278 32 ft 4 kts 359°
2026-05-06 04:37 -8.74618 115.16277 32 ft 4 kts 357°
2026-05-06 04:38 -8.74590 115.16275 32 ft 4 kts 358°
2026-05-06 04:38 -8.74577 115.16275 32 ft 1 kts 358°
2026-05-06 04:38 -8.74574 115.16275 32 ft 0 kts 358°